Tracking 25378 objects as of 22-Jan-2022
HD Live streaming from Space Station
objects crossing your sky now

COSMOS 1633

Track COSMOS 1633 now!
10-day predictions
COSMOS 1633 is classified as:


NORAD ID: 15592
Int'l Code: 1985-020A
Perigee: 464.6 km
Apogee: 480.1 km
Inclination: 82.5 °
Period: 93.9 minutes
Semi major axis: 6843 km
RCS: 7.2924 m2 (large)
Launch date: March 5, 1985
Source: Commonwealth of Independent States (former USSR) (CIS)
Launch site: PLESETSK MISSILE AND SPACE COMPLEX (PKMTR)
aabbcc
Your satellite tracking list
Your tracking list is empty




NASA's NSSDC Master Catalog

Two Line Element Set (TLE):
1 15592U 85020A   22022.57505122  .00004362  00000-0  13316-3 0  9994
2 15592  82.5356  70.1319 0011345 342.3274  17.7571 15.33564328 21060
Source of the keplerian elements: AFSPC